KSF1-B (48926 NORAD) Tracking and Keplerian Element Data

This shows tracking and keplerian element data for the satellite.

Feedback or suggestion? Click here.




ElementValue
Catalog48926
NameKSF1-B
Epoch Orbit1289
Epoch Day262.06694934
Epoch Year2021
RAAN29.7775
Inclination97.5213
Eccentricity0.0015885
Argument of Perigee315.3228
Mean Anonmoly162.4038
Mean Motion15.13741948
Decay Rate1.601E-05
L11 48926U 21059AZ 21262.06694934 .00001601 00000-0 92290-4 0 9994
L22 48926 97.5213 29.7775 0015885 315.3228 162.4038 15.13741948 12893

Live tracking and technical data element details for KSF1-B (NORAD 48926). KSF1-B can be tracked NOW for your location showing map with azimuth and elevation plus other details from your city location.

Track the satellite on the map from your city or location and see movement details for azimuth, elevation, latitude, longitude, range, height, and movement on the map or in text.







IsCatalogInMostPopularTable: catalog: 48926, numindb: 13
Update: records affected: 1



GetName: 48926 KSF1-B

Hit Count: updated at: Fri, 24 Sep 2021 17:26:45 GMT